Weather in Ust-Ukhta

Russia / Komi Republic     63°37′09″N   53°52′51″E
temp.,
°C
wind,
m/s
gust,
m/s
humid.,
%
clouds,
%
prec.,
mm/h
press.,
hPa
HPBL,
m
11 april, sun
sun1100:000s311925 0.0 1025309
03:00−1s311944 0.0 1024279
06:00+1s412875 0.0 1022459
09:00+5ssw512726 0.0 1020974
12:00+7sw6146714 0.0 10181283
15:00+4wsw5118215 0.3 1021987
18:00+3wsw513705 0.0 1022733
21:00+2wsw615745 0.0 1024769
12 april, mon
mon1200:00+2wsw615725 0.0 10241011
03:00+1w513755 0.0 1027849
06:00+1wsw613765 0.0 1029921
09:00+4w6127076 0.0 10311179
12:00+5w5116175 0.0 10321440
15:00+7w5115997 0.1 10331646
18:00+5wsw4115964 0.0 1033569
21:00+3sw4137096 0.0 1033406
13 april, tue
tue1300:00+3sw41471100 0.0 1031515
03:00+4sw51573100 0.0 1030610
06:00+4sw51483100 0.0 1029566
09:00+8sw51377100 0.0 1027586
12:00+10sw51167100 0.0 1026744
15:00+9sw4972100 0.1 10241054
18:00+7sw51388100 0.2 1021929
21:00+8sw51289100 0.3 1020945
14 april, wed
wed1400:00+8sw41295100 1.1 1019537
03:00+8wsw31096100 1.8 1018490
06:00+8wsw399894 0.1 1018478
09:00+9sw399395 0.1 1017592
12:00+12sw597593 0.1 10161052
15:00+10sw51285100 0.3 10111056
18:00+10wsw41186100 0.6 1009747
21:00+7w51370100 1.6 10111203
15 april, thu
thu1500:00+3wnw6116098 0.0 10131128
03:000nw5970100 0.0 10171034
06:00−1nnw4765100 0.0 1020878
09:00+2nnw3543100 0.0 10211123
12:00+3n3439100 0.0 10211430
15:00+4nne233694 0.0 10211847
18:00+3ne234397 0.0 1020105
21:00+1ene2657100 0.0 1020232